Location: Brabourne
(51.1333°N, 1.0000°E)
Time: 22:13:09
(UTC+00:00)

NOSS 3-1 (A) - Pass Details

Date: 28 October 2021
Orbit: 721 x 1491 km, 63.4° (Epoch: 22 November)

Event Time Altitude Azimuth Distance (km) Brightness Sun altitude
Rises 20:21:42 0° 270° (W) 3,385 7.2 -35.2°
Reaches altitude 10° 20:24:15 10° 280° (W) 2,543 6.4 -35.6°
Maximum altitude 20:29:36 33° 344° (NNW) 1,599 4.8 -36.3°
Enters shadow 20:30:06 33° 353° (N) 1,627 4.8 -36.4°
